Location: Egelstal
(48.4445°N, 8.7157°E)
Time: 21:48:34
(UTC+00:00)

Daily predictions for brighter satellites

Satellite Brightness Start Highest point End
(mag) Time Altitude Azimuth Time Altitude Azimuth Time Altitude Azimuth
BREEZE-M DEB (TANK) 3.4 20:04:12 10° WSW 20:07:43 71° SSE 20:19:45 10° ENE
Cosmos 1862 Rocket 3.8 20:04:15 10° S 20:08:33 54° E 20:12:54 10° NNE
Okean 1-7 4.0 20:07:32 10° SSE 20:11:17 29° E 20:15:01 10° NNE
GENESIS II 4.2 20:08:02 10° SSW 20:11:33 50° SE 20:15:06 10° NE
SL-16 R/B 3.9 20:06:56 10° NW 20:11:45 29° WSW 20:16:32 10° SSW
Cosmos 1315 Rocket 3.7 20:10:25 10° SSE 20:13:59 32° E 20:17:34 10° NNE
COSMOS 2455 3.9 20:10:34 10° SSE 20:15:15 24° ESE 20:19:57 10° NE
Cosmos 1346 Rocket 2.9 20:11:39 10° NNW 20:15:30 76° W 20:19:18 10° S
Cosmos 1242 Rocket 3.9 20:14:05 10° SE 20:15:37 14° E 20:17:08 10° ENE
Meteor 1-21 4.3 20:11:18 10° S 20:17:04 71° E 20:22:52 10° NNE
SeaSat 1 3.0 20:13:43 10° SE 20:18:27 51° NE 20:23:13 10° NNW
Ariane Rocket 3.2 20:21:00 10° SSE 20:26:01 63° ENE 20:31:04 10° N
IRS-1C Rocket 4.3 20:21:30 10° S 20:26:45 75° WSW 20:32:02 10° NNW
Cosmos 839 Rocket 4.2 20:20:01 10° NW 20:26:53 76° WSW 20:33:00 10° SSE
Cosmos 1707 Rocket 3.7 20:23:31 10° SSW 20:27:58 82° W 20:32:24 10° N
Okean 3 3.4 20:24:15 10° S 20:28:23 70° E 20:32:34 10° NNE
Cosmos 2333 Rocket 3.1 20:23:51 10° NW 20:29:20 46° WSW 20:34:47 10° S
IRS-1A Rocket 4.4 20:24:11 10° S 20:29:40 75° WSW 20:35:15 10° NNW
SL-14 R/B 3.9 20:26:04 10° SSW 20:29:47 57° WNW 20:33:34 10° N
SL-4 R/B 1.9 20:27:51 10° WNW 20:31:40 80° SSW 20:35:45 10° ESE
Cosmos 2237 Rocket 3.5 20:27:16 10° NNW 20:32:13 30° NE 20:37:06 10° ESE
Cosmos 1655 Rocket 4.3 20:28:31 10° SSW 20:34:55 75° W 20:41:20 10° N
CZ-4C R/B 4.0 20:30:53 10° N 20:34:58 60° WNW 20:38:58 10° SSW
BlueWalker 3 1.8 20:32:26 10° WSW 20:36:11 87° SSE 20:39:57 10° ENE
Cosmos 968 Rocket 4.1 20:31:43 10° SW 20:36:50 62° WNW 20:42:01 10° NNE
Okean 2 3.5 20:34:45 10° S 20:38:39 53° E 20:42:35 10° NNE
Cosmos 1733 Rocket 3.9 20:38:06 10° NNW 20:42:24 50° W 20:46:41 10° S
Cosmos 2322 3.7 20:39:45 10° NNW 20:45:28 87° ENE 20:50:38 13° SSE
Resurs 01 Rocket 4.4 20:44:29 10° WSW 20:46:14 12° W 20:47:59 10° WNW
Meteor 1-16 Rocket 4.5 20:42:30 10° NNW 20:48:28 78° W 20:54:19 10° S
USA 234 3.6 20:43:03 10° ENE 20:49:10 41° SE 20:55:16 10° SSW
Cosmos 2322 Rocket 4.1 20:45:12 10° NW 20:49:37 24° WSW 20:54:00 10° SSW
Meteor 2-20 Rocket 4.5 20:48:09 10° N 20:54:21 86° W 21:00:16 10° S
Cosmos 2297 Rocket 3.2 20:53:48 13° SSE 20:57:48 27° ESE 21:02:29 10° NE
EXPRESS MD2 2.3 20:55:38 10° WNW 20:58:16 66° N 21:00:19 11° E
Cosmos 1908 Rocket 3.5 20:59:02 10° N 21:03:23 90° NNE 21:07:02 14° S
MOS 1 Rocket 3.9 20:58:53 10° S 21:04:10 62° W 21:09:17 10° NNW
NOSS 8 (F) 4.3 21:02:20 10° SW 21:06:21 76° SE 21:09:30 10° NE
Cosmos 2219 Rocket 3.2 21:01:04 10° NW 21:06:22 41° WSW 21:11:39 10° S
Cosmos 1782 Rocket 3.9 21:02:54 10° N 21:07:10 52° ENE 21:10:15 18° SSE
ERS-1 Rocket 4.0 21:04:25 10° SSW 21:09:07 40° W 21:13:52 10° NNW
USA 281 4.2 21:04:06 10° ESE 21:10:04 39° NE 21:16:05 10° NNW
Cosmos 371 Rocket 3.8 21:06:32 14° SSE 21:10:14 40° ESE 21:14:44 10° NE
Terra 2.8 21:07:59 10° SSW 21:12:26 41° W 21:16:55 10° NNW
Cosmos 1570 Rocket 4.3 21:07:19 10° NNW 21:12:39 67° WSW 21:17:02 15° S
Cosmos 773 Rocket 4.4 21:08:06 10° NNW 21:13:09 52° ENE 21:17:04 17° SE
Cosmos 1300 Rocket 3.9 21:10:01 10° N 21:14:14 52° ENE 21:17:09 19° SSE
MetOp-A 4.1 21:10:24 16° SSE 21:14:40 80° ENE 21:19:51 10° NNW
Meteor 1-4 Rocket 4.5 21:18:27 10° SW 21:20:54 22° WNW 21:23:23 10° NNW
Cosmos 1703 4.4 21:21:01 19° SE 21:22:33 26° E 21:25:39 10° NNE
ARIANE 5 R/B 3.5 21:19:54 17° SE 21:22:46 36° ENE 21:26:46 10° N
Spot 1 4.3 21:18:28 10° NNE 21:23:12 84° ESE 21:28:03 11° SSW
GP-B 3.2 21:20:05 10° N 21:24:29 60° E 21:27:24 20° SSE
Cosmos 2084 Rocket 3.6 21:26:00 10° SSW 21:30:09 49° SE 21:34:11 10° NE
NOSS 0 Rocket 4.0 21:24:32 10° NNW 21:30:49 78° WSW 21:35:24 19° SSE
Cosmos 1953 3.6 21:29:24 10° NNW 21:32:52 34° W 21:36:01 12° SSW
COSMOS 2428 3.2 21:27:27 10° NW 21:32:59 53° WSW 21:37:11 17° S
Cosmos 1455 3.4 21:31:22 10° NNW 21:34:32 32° W 21:37:14 13° SSW
CZ-4C R/B 1.8 21:30:15 10° SSW 21:34:43 75° SE 21:40:22 10° NE
SJ 16-02 3.8 21:31:40 10° WSW 21:35:04 22° NW 21:38:31 10° N
BREEZE-M DEB (TANK) 4.1 21:18:40 10° W 21:36:23 83° N 21:40:40 10° E
Cosmos 1386 Rocket 4.5 21:32:18 12° S 21:38:12 87° W 21:44:23 10° N
Cosmos 1745 Rocket 4.0 21:34:05 14° S 21:39:39 83° E 21:46:03 10° N
BREEZE-M DEB (TANK) 3.2 21:39:51 33° SSE 21:39:57 33° SSE 21:43:03 10° E
Cosmos 1777 Rocket 4.4 21:36:59 20° SSE 21:40:17 45° ESE 21:45:19 10° NNE
Cosmos 304 Rocket 3.8 21:38:33 17° S 21:42:06 64° ESE 21:46:50 10° NNE
Nadezhda 1 Rocket 4.1 21:37:29 10° NNW 21:43:45 76° W 21:48:28 18° S
Cosmos 1703 Rocket 4.5 21:41:56 10° SSW 21:46:13 47° WNW 21:50:32 10° N
Cosmos 1242 Rocket 4.1 21:45:07 10° SW 21:47:21 22° WNW 21:49:35 10° NNW
Cosmos 1503 Rocket 4.1 21:45:02 18° S 21:48:58 64° ESE 21:54:12 10° NNE
Cosmos 1825 3.9 21:49:46 15° E 21:50:24 16° E 21:52:33 10° NE
Cosmos 2098 Rocket 4.2 21:49:10 10° N 21:55:40 62° ENE 21:59:29 23° SSE
SeaSat 1 3.8 21:52:49 14° SSW 21:56:05 28° WSW 22:00:19 10° NW
Okean 2 Rocket 4.1 21:53:03 10° N 21:57:13 36° ENE 21:59:32 21° SE
BREEZE-M R/B 4.4 21:57:09 21° SE 21:58:00 22° ESE 22:03:52 10° ENE
H-2A R/B 3.2 21:56:48 23° SE 21:59:02 45° ENE 22:03:02 10° N
MINOTAUR 4 R/B 4.1 21:57:34 10° NNE 22:00:19 39° E 22:00:41 37° ESE
COSMOS 2455 3.1 21:54:37 10° SW 22:00:38 71° NW 22:06:42 10° NNE
Cosmos 1892 3.9 22:01:05 22° ESE 22:01:51 24° E 22:04:45 10° NE
CZ-2C R/B 3.6 21:58:07 10° NNE 22:02:33 76° ESE 22:05:08 25° S
Cosmos 1408 2.9 22:02:06 24° SW 22:03:34 46° WNW 22:06:29 10° N
Cosmos 332 Rocket 4.1 22:03:49 27° SSE 22:06:11 48° ESE 22:10:54 10° NNE
Cosmos 1174 4.0 22:02:11 10° NW 22:06:58 65° WSW 22:08:42 32° SSE
ALOS 2 3.6 22:04:51 20° ESE 22:07:15 36° ENE 22:11:16 10° N
Cosmos 405 Rocket 2.7 22:04:39 10° N 22:08:26 71° ENE 22:09:55 34° SSE
SL-4 R/B 3.5 22:07:02 10° W 22:10:04 21° SW 22:10:36 20° SSW
Cosmos 2181 Rocket 4.2 22:04:29 10° N 22:10:36 62° ENE 22:14:19 24° SSE
SL-16 R/B 2.8 22:08:49 10° NNW 22:14:22 50° NE 22:18:25 18° SE
BlueWalker 3 3.3 22:11:03 10° W 22:14:36 40° N 22:18:11 10° ENE
Meteor 2-5 Rocket 3.8 22:11:12 22° S 22:15:06 82° E 22:20:54 10° NNE
CENTAUR R/B 2.6 22:11:56 23° S 22:15:21 50° ESE 22:22:01 10° NE
Cosmos 2237 Rocket 2.5 22:11:04 10° NW 22:16:38 58° WSW 22:19:45 26° S
Spot 4 4.0 22:17:54 28° SSE 22:20:25 69° ENE 22:25:14 10° N
Cosmos 2227 Rocket 2.2 22:18:48 24° S 22:22:14 64° ESE 22:27:52 10° NNE
Cosmos 2221 Rocket 3.9 22:25:50 32° SSE 22:27:34 51° E 22:31:52 10° NNE
Cosmos 1980 4.4 22:25:32 10° NW 22:30:52 43° WSW 22:33:48 24° SSW
H-2A R/B 3.8 22:29:36 10° NE 22:32:24 17° E 22:33:24 16° ESE
USA 234 3.4 22:25:58 10° NE 22:32:31 77° NNW 22:39:02 10° WSW
Sich 1 Rocket 3.5 22:28:44 10° N 22:33:08 79° E 22:34:57 35° SSE
Cosmos 1354 Rocket 4.2 22:31:07 18° SSW 22:35:04 74° WNW 22:40:23 10° NNE
Okean 1 Rocket 3.3 22:34:48 10° N 22:39:08 59° ENE 22:40:58 32° SE
Cosmos 2297 Rocket 2.8 22:35:58 10° SW 22:41:30 55° WNW 22:47:04 10° NNE
Cosmos 1461 3.8 22:43:12 28° ESE 22:43:17 28° ESE 22:46:38 10° ENE
Cosmos 990 Rocket 3.9 22:45:53 31° S 22:48:18 68° ESE 22:53:25 10° NNE
Nadezhda 3 Rocket 4.3 22:42:10 10° N 22:48:20 57° ENE 22:51:56 25° SSE
USA 281 3.5 22:50:46 26° S 22:54:24 54° WSW 23:00:52 10° NNW
Cosmos 2219 3.2 22:51:46 30° S 22:54:32 63° ESE 23:00:06 10° NNE
Meteor 1-24 Rocket 4.4 22:52:47 17° SW 22:56:56 49° WNW 23:02:17 10° N
ARIANE 5 R/B 4.1 22:57:21 19° SW 22:59:14 26° W 23:02:55 10° NW
Cosmos 1975 Rocket 4.4 22:59:41 23° ESE 23:01:11 28° E 23:04:58 10° NNE
Cosmos 1025 Rocket 3.3 23:00:15 36° SSE 23:01:40 53° E 23:05:52 10° NNE
Cosmos 2263 Rocket 2.4 23:01:07 31° S 23:03:31 53° ESE 23:08:56 10° NE
Cosmos 2184 Rocket 4.0 22:59:56 28° S 23:03:33 84° E 23:09:59 10° N
Orbus 7S? 4.3 23:01:14 10° NW 23:03:44 31° NNE 23:06:29 10° E
Cosmos 1455 Rocket 3.5 23:05:02 10° N 23:09:24 53° ENE 23:11:17 31° SE
Cosmos 1378 Rocket 4.4 23:10:39 24° SW 23:12:54 43° WNW 23:17:07 10° N
Cosmos 1674 Rocket 4.2 23:14:09 26° SW 23:16:12 47° WNW 23:20:24 10° N
Cosmos 292 Rocket 3.7 23:17:32 35° S 23:19:32 78° ESE 23:24:22 10° NNE
NOSS 3-2 (A) 3.1 23:18:38 24° SW 23:21:55 86° SE 23:28:12 10° NE
Cosmos 2154 Rocket 4.0 23:18:32 29° S 23:22:01 87° W 23:28:22 10° N
CZ-4C R/B 4.1 23:19:21 10° W 23:23:46 30° NNW 23:29:11 10° NE
Cosmos 1825 3.1 23:23:13 27° WSW 23:24:18 34° WNW 23:27:27 10° N
PSLV R/B 3.4 23:25:04 10° NNE 23:29:17 80° WNW 23:30:49 38° SSW
NOSS 3-2 (C) 3.5 23:30:22 33° S 23:32:30 51° ESE 23:38:24 10° NE
Cosmos 1818 3.6 23:28:23 10° NW 23:33:50 67° WSW 23:36:27 31° SSE
H-2A R/B 4.3 23:32:47 18° WSW 23:34:09 20° W 23:37:19 10° NW
Cosmos 1892 4.3 23:34:58 18° WSW 23:36:24 23° WNW 23:39:18 10° NNW
Meteor 1-21 Rocket 4.2 23:34:06 31° S 23:37:00 89° W 23:42:40 10° NNE
ALOS 2 4.0 23:42:15 22° SW 23:43:38 27° W 23:47:23 10° NW
In-Cosmos 22 Rocket 4.3 23:41:13 30° S 23:44:09 74° E 23:49:59 10° NNE
Cosmos 1869 3.6 23:44:16 10° N 23:47:55 53° ENE 23:49:12 34° SE
Aureole 1 Rocket 3.5 23:48:39 28° SW 23:50:36 55° WNW 23:55:36 10° NNE
Cosmos 1937 Rocket 3.5 23:48:31 33° SSW 23:50:58 80° ESE 23:56:13 10° NNE
BlueWalker 3 2.9 23:49:37 10° WNW 23:53:16 47° NNE 23:56:53 10° E
